Regional Weather Roundup
Issued by NWS

Home | Current Version | Previous Version | Text Only | Print | Product List | Glossary On
Versions: 1 2 3 4 5 6 7 8 9 10 11 12 13 14 15 16 17 18 19 20 21 22 23 24 25 26 27 28 29 30 31 32 33 34 35 36 37 38 39 40 41 42 43 44 45 46 47 48 49 50
786
ASUS42 KKEY 310910
RWRKEY

FLORIDA REGIONAL WEATHER ROUNDUP FOR THE FLORIDA KEYS
NATIONAL WEATHER SERVICE KEY WEST FLORIDA
500 AM EDT SUN JUL 31 2016

...SOUTH FLORIDA AND THE KEYS...

CITY           SKY/WX    TMP DP  RH WIND       PRES   REMARKS
FORT MYERS     CLEAR     74  73  97 SE3       30.01S
SW REGIONAL AP   N/A     75  72  90 CALM      30.02S
NAPLES         PTCLDY    76  73  91 E5        30.01S
MIAMI          LGT RAIN  81  75  82 E6        30.03S
WEST KENDALL   CLEAR     78  74  87 CALM      30.02S
HOMESTEAD      PTCLDY    81  75  82 E8        30.02S
MARATHON       PTCLDY    82  74  76 E7        30.01S
BOCA CHICA NAS PTCLDY    82  74  76 E9        30.01S
KEY WEST INTL  PTCLDY    83  74  74 E6        30.01S

...INTERNATIONAL WEATHER...

CITY           SKY/WX    TMP DP  RH WIND       PRES   REMARKS
NASSAU BAHAMAS PTCLDY    81  77  89 E5        30.06R
CANCUN MEXICO  PTCLDY    81  77  89 CALM      29.97S
COZUMEL MEXICO PTCLDY    70  70 100 CALM      29.97S

ADJACENT COASTAL WATERS...

STATION/POSITION TIME  SKY/WX   TEMP    WIND        PRES    WAVE
                                AIR SEA DIR/SP/G            HT/PER
                 (UTC)          (F)     (DEG/KT/KT) (MB)    (FT/S)
PULASKI SHOAL LI 0900            84     120/  6/  6 1016.2F
SAND KEY         0850            83     100/  8/ 10 1016.7R
LONG KEY         0800            83 88  100/ 11/ 14 1016.7R
FOWEY ROCKS      0900            83 85  120/ 13/ 14 1017.3R

$$




USA.gov is the U.S. government's official web portal to all federal, state and local government web resources and services.